Regional Weather Roundup
Issued by NWS

Home | Current Version | Previous Version | Graphics & Text | Print | Product List | Glossary On
Versions: 1 2 3 4 5 6 7 8 9 10 11 12 13 14 15 16 17 18 19 20 21 22 23 24 25 26 27 28 29 30 31 32 33 34 35 36 37 38 39 40 41 42 43 44 45 46 47 48 49 50
000
ASUS44 KMEG 301000
RWRTN
TENNESSEE HOURLY STATE WEATHER ROUNDUP
NATIONAL WEATHER SERVICE MEMPHIS TN
500 AM CDT THU MAR 30 2017

TNZ002-004-019-021-049-052-054-088>092-301100-
WEST TENNESSEE

CITY           SKY/WX    TMP DP  RH WIND       PRES   REMARKS
MEMPHIS INTL   CLOUDY    68  59  73 S13       29.74F
NWS MEMPHIS      N/A     68 N/A N/A MISG        N/A
JACKSON        CLOUDY    71  59  65 S16G24    29.75S
DYERSBURG      LGT RAIN  67  59  75 S14G22    29.73S
PARIS          PTCLDY    66  55  68 S10       29.74F
$$

TNZ008-025-027-028-033-062-065-066-301100-
NORTH MIDDLE TENNESSEE

CITY           SKY/WX    TMP DP  RH WIND       PRES   REMARKS
NASHVILLE      CLOUDY    69  57  65 S9        29.83S
CLARKSVILLE    CLOUDY    68  56  65 S7        29.77S
SMYRNA         CLOUDY    65  59  81 SE8       29.84F
CROSSVILLE     CLOUDY    63  54  72 S5        29.93S
$$

TNZ061-075-076-078-094-096-097-301100-
SOUTH MIDDLE TENNESSEE

CITY           SKY/WX    TMP DP  RH WIND       PRES   REMARKS
TULLAHOMA      CLEAR     66  54  63 S8        29.88S
WINCHESTER     CLEAR     64  55  72 SE3       29.88F
MCMINNVILLE    CLEAR     66  57  72 S3        29.87F
COLUMBIA       CLEAR     68  63  83 S12       29.82R
SHELBYVILLE    CLEAR     70  59  68 S9        29.86S
$$

TNZ017-018-042-046-047-301100-
NORTHEAST TENNESSEE

CITY           SKY/WX    TMP DP  RH WIND       PRES   REMARKS
TRI CITIES     CLEAR     50  47  89 CALM      29.99S
$$

TNZ012-013-036-069-073-074-301100-
CENTRAL EAST TENNESSEE

CITY           SKY/WX    TMP DP  RH WIND       PRES   REMARKS
KNOXVILLE      PTCLDY    55  50  83 NE3       29.91F
OAK RIDGE      MOCLDY    58  51  78 CALM      29.93F
GATLINBURG     CLEAR     50  46  87 CALM      29.93S
$$

TNZ083-085-099-301100-
SOUTHEAST TENNESSEE

CITY           SKY/WX    TMP DP  RH WIND       PRES   REMARKS
CHATTANOOGA    CLOUDY    61  57  87 SE3       29.91S
$$

SKY/WX REPORTED AS FAIR MEANS FEW OR NO CLOUDS BELOW
12 THOUSAND FEET.





USA.gov is the U.S. government's official web portal to all federal, state and local government web resources and services.